Regional Weather Roundup
Issued by NWS

Home | Current Version | Previous Version | Graphics & Text | Print | Product List | Glossary On
Versions: 1 2 3 4 5 6 7 8 9 10 11 12 13 14 15 16 17 18 19 20 21 22 23 24 25 26 27 28 29 30 31 32 33 34 35 36 37 38 39 40 41 42 43 44 45 46 47 48 49 50
000
ASUS44 KMEG 231510
RWRTN
TENNESSEE HOURLY STATE WEATHER ROUNDUP
NATIONAL WEATHER SERVICE MEMPHIS TN
1000 AM CDT SAT SEP 23 2017

TNZ002-004-019-021-049-052-054-088>092-231600-
WEST TENNESSEE

CITY           SKY/WX    TMP DP  RH WIND       PRES   REMARKS
MEMPHIS INTL   SUNNY     84  70  62 E3        30.04R
NWS MEMPHIS      N/A     83 N/A N/A MISG        N/A
JACKSON        SUNNY     81  72  74 CALM      30.06S
DYERSBURG      SUNNY     82  72  71 NE3       30.06S
SOMERVILLE     SUNNY     82  72  69 CALM      30.04R
COVINGTON      SUNNY     81  72  74 CALM      30.05S
BOLIVAR        SUNNY     81  70  69 CALM      30.05S
PARIS          SUNNY     81  70  69 VRB3      30.06S
HUNTINGDON     SUNNY     81  70  69 CALM      30.06S
LEXINGTON      SUNNY     81  70  69 CALM      30.06S
SELMER         SUNNY     81  70  69 CALM      30.06S
SAVANNAH       SUNNY     81  72  74 CALM      30.05S
$$

TNZ008-025-027-028-033-062-065-066-231600-
NORTH MIDDLE TENNESSEE

CITY           SKY/WX    TMP DP  RH WIND       PRES   REMARKS
NASHVILLE      SUNNY     81  69  67 CALM      30.09R
PORTLAND       PTSUNNY   81  72  74 CALM      30.09S
CLARKSVILLE    SUNNY     78  68  71 CALM      30.08R
SMYRNA         SUNNY     79  70  73 CALM      30.10R
COOKEVILLE     SUNNY     77  68  73 CALM      30.11R
GALLATIN       SUNNY     81  70  69 CALM      30.11S
CROSSVILLE     SUNNY     78  65  63 W5        30.16R
$$

TNZ061-075-076-078-094-096-097-231600-
SOUTH MIDDLE TENNESSEE

CITY           SKY/WX    TMP DP  RH WIND       PRES   REMARKS
FAYETTEVILLE   SUNNY     79  70  73 CALM      30.08S
TULLAHOMA      SUNNY     81  66  61 S5        30.11R
WINCHESTER     SUNNY     81  68  65 CALM      30.09S
MCMINNVILLE    SUNNY     79  72  78 CALM      30.10S
COLUMBIA       SUNNY     77 N/A N/A CALM      30.06S
SHELBYVILLE    SUNNY     81  70  69 CALM      30.08S
$$

TNZ017-018-042-046-047-231600-
NORTHEAST TENNESSEE

CITY           SKY/WX    TMP DP  RH WIND       PRES   REMARKS
TRI CITIES     SUNNY     76  66  71 CALM      30.14S
ELIZABETHTON   SUNNY     77  64  65 CALM      30.14S
$$

TNZ012-013-036-069-073-074-231600-
CENTRAL EAST TENNESSEE

CITY           SKY/WX    TMP DP  RH WIND       PRES   REMARKS
KNOXVILLE      PTSUNNY   75  66  73 NE6       30.11R
OAK RIDGE      CLOUDY    77  66  68 VRB3      30.13R
DOWNTOWN KNOXV SUNNY     77  68  73 CALM      30.11S
GATLINBURG     SUNNY     75  63  64 CALM      30.12R
MORRISTOWN     SUNNY     79  66  65 CALM      30.12S
JACKSBORO      SUNNY     77  66  69 CALM      30.16S
$$

TNZ083-085-099-231600-
SOUTHEAST TENNESSEE

CITY           SKY/WX    TMP DP  RH WIND       PRES   REMARKS
CHATTANOOGA    PTSUNNY   79  68  69 N3        30.10R
DAYTON         SUNNY     77  72  83 CALM      30.09S
$$

SKY/WX REPORTED AS FAIR MEANS FEW OR NO CLOUDS BELOW
12 THOUSAND FEET.





USA.gov is the U.S. government's official web portal to all federal, state and local government web resources and services.